Location: Oshawa
(43.9000°N, 78.8670°W)
Time: 23:38:03
(UTC-04:00)

Cosmos 1805 Rocket - Visible Passes

Search period start: 28 August 2016 00:00
Search period end: 07 September 2016 00:00
Orbit: 607 x 630 km, 82.5° (Epoch: 27 August)

Date Brightness Start Highest point End Pass type
(mag) Time Alt. Az. Time Alt. Az. Time Alt. Az.
28 Aug 6.3 01:55:45 10° NNW 01:56:39 16° NNW 01:56:39 16° NNW visible
29 Aug 6.4 00:35:41 10° NNE 00:36:23 13° NNE 00:36:23 13° NNE visible
29 Aug 6.4 02:13:09 10° NNW 02:13:30 12° NNW 02:13:30 12° NNW visible
30 Aug 6.4 00:52:20 10° N 00:53:14 15° N 00:53:14 15° N visible
31 Aug 6.4 01:09:17 10° N 01:10:07 15° N 01:10:07 15° N visible
01 Sep 6.5 01:26:28 10° NNW 01:27:00 13° NNW 01:27:00 13° NNW visible
02 Sep 6.5 00:06:21 10° NNE 00:06:45 12° NNE 00:06:45 12° NNE visible
03 Sep 6.5 00:23:02 10° N 00:23:39 14° N 00:23:39 14° N visible
04 Sep 6.6 00:40:00 10° N 00:40:34 14° N 00:40:34 14° N visible
05 Sep 6.7 00:57:10 10° NNW 00:57:29 12° NNW 00:57:29 12° NNW visible
05 Sep 6.5 23:37:01 10° NNE 23:37:17 11° NNE 23:37:17 11° NNE visible
